Regional Weather Roundup
Issued by NWS Kansas City/Pleasant Hill, MO

Home | Current Version | Previous Version | Graphics & Text | Print | Product List | Glossary Off
Versions: 1 2 3 4 5 6 7 8 9 10 11 12 13 14 15 16 17 18 19 20 21 22 23 24 25 26 27

000
ASUS43 KEAX 261410
RWREAX

WEATHER ROUNDUP FOR EASTERN KANSAS AND NORTHWEST MISSOURI
NATIONAL WEATHER SERVICE KANSAS CITY/PLEASANT HILL MO
800 AM CST SUN FEB 26 2017

KSZ040-057-103>105-MOZ028-029-037-043-261500-
...KANSAS CITY METROPOLITAN AREA...

CITY           SKY/WX    TMP DP  RH WIND       PRES   REMARKS
K.C. INTL      CLOUDY    36  28  73 SW14      30.02R WCI  27
K.C. DOWNTOWN  FLURRIES  37  31  78 SW14      30.05R WCI  28
LEES SUMMIT    CLOUDY    38  26  62 SW12G21   30.05R WCI  30
OLATHE - IXD   CLOUDY    36  28  73 SW8       30.03S WCI  30
OLATHE - OJC   LGT SNOW  34  32  92 SW5       30.03R FOG     WCI  30
LAWRENCE       LGT SNOW  33  33 100 E5        30.03S FOG     WCI  29

$$

MOZ001>008-011>017-020>025-030>033-038>040-044>046-053-054-261500-
...NORTHERN AND CENTRAL MISSOURI...

CITY           SKY/WX    TMP DP  RH WIND       PRES   REMARKS
ST. JOSEPH     MOSUNNY   32  23  69 S7        30.02R WCI  26
MOSBY          CLOUDY    37  23  56 SW6       30.04R WCI  33
WARRENSBURG    CLOUDY    36  19  51 SW8       30.06R WCI  29
WHITEMAN AFB   CLOUDY    38  17  41 SW13      30.04R WCI  30
CLINTON        CLOUDY    36  19  51 CALM      30.07R
SEDALIA        CLOUDY    38  16  40 SW15      30.05R WCI  29
WARSAW         NOT AVBL
CHILLICOTHE      N/A     33  17  51 CALM      30.03R
KIRKSVILLE     CLOUDY    33  16  49 SW10      30.01R WCI  25

$$

MOZ041-047>049-056>058-063>065-088>090-097-261500-
...EASTERN AND SOUTHERN MISSOURI...

CITY           SKY/WX    TMP DP  RH WIND       PRES   REMARKS
ST. LOUIS INTL CLOUDY    35  13  40 S12       30.12R WCI  27
SPIRIT OF STL  CLOUDY    33  12  41 S10       30.12R WCI  25
COLUMBIA       CLOUDY    33  15  47 S12       30.05S WCI  24
JEFFERSON CITY CLOUDY    33  15  47 SE3       30.08S
ROLLA          CLOUDY    34  13  41 S13       30.06S WCI  25
OSAGE BEACH    CLOUDY    33  16  49 S7        30.08R WCI  27
SPRINGFIELD    CLOUDY    36  17  46 S18       30.05R WCI  26
BRANSON        CLOUDY    32  16  51 CALM      30.09R
JOPLIN         CLOUDY    37  20  50 SE8       30.05R WCI  31
WEST PLAINS    MOSUNNY   32  15  49 SE7       30.11S WCI  26

$$

IAZ060-094-KSZ022-034>040-054-083-096-NEZ052-066-093-261500-
...KANSAS...SOUTHEAST NEBRASKA AND IOWA...

CITY           SKY/WX    TMP DP  RH WIND       PRES   REMARKS
TOPEKA         CLOUDY    34  32  92 SE5       30.02R WCI  30
MANHATTAN      CLOUDY    35  32  88 N5        29.99S WCI  31
EMPORIA        MOSUNNY   32  32 100 E8        29.98R FOG     WCI  25
CHANUTE        CLOUDY    37  20  50 SE8       30.01F WCI  31
WICHITA        CLOUDY    35  22  58 S6        29.93R WCI  30
OMAHA          PTCLDY    33  21  61 SW9       29.90R WCI  25
LINCOLN        CLEAR     31  20  63 W10       29.93R WCI  22
FALLS CITY     CLOUDY    35  21  56 S16       29.95F WCI  25
LAMONI         MOSUNNY   30  19  63 SW13      29.93R WCI  20
DES MOINES     MOSUNNY   31  21  66 SW10      29.90R WCI  22

$$





USA.gov is the U.S. government's official web portal to all federal, state and local government web resources and services.